Home > Weather > Trujillo > Past weeks

Flag for Peru Past Weather in Trujillo, La Libertad, Peru — Yesterday and Last 2 Weeks

Now
72 °F

Overcast.


Feels Like: 74 °F
Forecast: 64 / 79 °F
Wind: 12 mph from Southeast

Location: Trujillo Airport

Current Time: Aug 29, 2016 at 1:09:13 PM

Latest Report: Aug 29, 2016 at 12:00 PM


Visibility: 6 mi

Pressure: 29.98 "Hg

Humidity: 73%

Dew Point: 63 °F

Location of TrujilloLocation

Past Weather in Trujillo — Graph

°F

Trujillo Temperature Yesterday

Maximum temperature yesterday: 73 °F (at 1:00 PM)
Minimum temperature yesterday: 64 °F (at 12:00 AM)
Average temperature yesterday: 67 °F

High & Low Weather Summary for the Past Weeks

 TemperatureHumidityPressure
High75 °F (Aug 24, 1:00 PM)100% (Aug 20, 6:00 AM)30.04 "Hg (Aug 20, 6:00 AM)
Low61 °F (Aug 16, 4:00 AM)61% (Aug 16, 12:00 PM)29.83 "Hg (Aug 14, 4:00 PM)
Average67 °F82%29.93 "Hg
* Reported Aug 14 12:00 PM — Aug 29 12:00 PM, Trujillo, Weather by CustomWeather, © 2016

Note: Actual official high and low records may vary slightly from our data, if they occured in-between our weather recording intervals... More about our weather records

Advertising

Trujillo Weather History for the Previous 24 Hours

Scroll right to see more
 ConditionsComfort  
Time TempWeatherWind HumidityBarometerVisibility
12:00 PM
Mon, Aug 29
72 °FOvercast.12 mph73%29.98 "Hg6 mi
11:00 AM72 °FOvercast.13 mph73%29.98 "Hg5 mi
10:00 AM68 °FOvercast.10 mph83%30.01 "Hg5 mi
9:00 AM66 °FFog.9 mph83%30.01 "Hg3 mi
8:00 AM64 °FFog.8 mph88%29.98 "Hg3 mi
7:00 AM64 °FOvercast.8 mph88%29.98 "Hg4 mi
6:00 AM64 °FOvercast.8 mph88%29.95 "Hg4 mi
5:00 AM64 °FOvercast.7 mph94%29.95 "Hg4 mi
4:00 AM64 °FOvercast.9 mph88%29.95 "Hg4 mi
3:00 AM64 °FOvercast.7 mph88%29.95 "Hg4 mi
2:00 AM64 °FOvercast.9 mph94%29.98 "Hg4 mi
1:00 AM64 °FOvercast.10 mph94%29.98 "Hg4 mi
12:00 AM64 °FPassing clouds.8 mph88%30.01 "Hg4 mi
11:00 PM
Sun, Aug 28
64 °FPassing clouds.8 mph94%30.01 "Hg4 mi
10:00 PM64 °FPassing clouds.10 mph94%30.01 "Hg4 mi
9:00 PM64 °FPassing clouds.10 mph88%30.01 "Hg4 mi
8:00 PM66 °FPassing clouds.12 mph83%29.98 "Hg4 mi
7:00 PM66 °FPassing clouds.10 mph83%29.95 "Hg5 mi
6:00 PM68 °FPartly sunny.10 mph83%29.95 "Hg4 mi
5:00 PM70 °FSunny.12 mph78%29.95 "Hg10 mi
4:00 PM72 °FSunny.13 mph73%29.95 "Hg10 mi
3:00 PM73 °FSunny.13 mph69%29.95 "Hg10 mi
2:00 PM73 °FSunny.13 mph69%29.98 "Hg10 mi
1:00 PM73 °FPassing clouds.14 mph69%30.01 "HgN/A
Weather by CustomWeather, © 2016

See weather overviewHow to use our weather pages